Location: Newark
(54.9353°N, 24.1167°E)
Time: 09:16:01
(UTC+00:00)

Envisat - Pass Details

Date: 03 October 2020
Orbit: 764 x 766 km, 98.1° (Epoch: 23 October)

Event Time Altitude Azimuth Distance (km) Brightness Sun altitude
Rises 03:28:15 0° 22° (NNE) 3,246 6.7 -9.7°
Reaches altitude 10° 03:31:00 10° 36° (NE) 2,315 6.1 -9.3°
Maximum altitude 03:35:06 24° 90° (E) 1,553 5.7 -8.7°
Drops below altitude 10° 03:39:11 10° 144° (SE) 2,300 5.9 -8.2°
Sets 03:41:54 0° 158° (SSE) 3,221 6.5 -7.8°
